Wind_Speed
35 35 37 38 37 34 31 30 28 23 19 16 14 18 19 15 15 16 9 9 15 18 18 17 15 14 13 11 10 12 14 17 20 19 18 20 22 24 27 28 28 27 27 25 23 22 21 19 17 15 14 15 15 15 15 13 12 11 10 10 11 12 12 12 12 11 9 9 9 9 8 7 5 3 2 2 4 6 8 10 12 13 14 15 16 18
35 37 39 38 34 31 29 29 28 25 21 17 14 15 19 17 14 16 12 8 11 16 17 17 16 14 14 11 11 13 14 16 19 20 19 20 21 24 29 31 31 29 27 26 24 23 22 20 18 16 15 16 16 15 14 13 12 11 11 11 12 13 13 12 11 9 9 10 10 10 8 5 4 3 3 4 6 8 10 11 13 13 14 16 17 18
36 38 38 34 32 30 28 28 27 25 23 19 16 15 17 18 15 14 13 9 10 14 15 16 15 14 14 13 11 13 14 15 19 22 20 20 22 24 28 31 33 31 29 28 26 24 22 20 18 16 15 16 16 15 14 13 13 12 12 12 13 13 13 12 10 9 10 11 11 9 7 5 3 4 4 6 7 9 11 13 13 14 15 16 17 18
36 36 35 33 31 31 29 28 26 25 24 22 18 15 16 19 15 10 12 10 9 11 12 13 14 14 15 14 14 16 16 16 18 22 22 20 22 24 27 30 30 30 30 27 25 22 21 21 17 15 14 15 16 15 14 13 13 12 12 12 12 12 13 12 10 10 11 11 10 8 6 5 4 5 6 7 9 11 12 13 13 14 15 17 18 19
35 33 33 33 32 31 30 29 28 26 26 26 23 19 17 20 16 10 11 11 9 8 9 11 11 13 16 15 17 19 17 17 18 20 22 21 23 24 26 27 25 25 27 26 24 22 21 18 15 13 13 15 16 15 14 14 13 12 12 11 12 12 12 11 10 11 12 11 9 7 5 5 5 6 7 9 11 12 12 12 14 15 17 18 19 20
34 32 32 34 33 32 31 31 30 28 27 27 26 23 19 18 16 11 11 10 9 7 8 11 8 9 16 16 16 19 18 18 18 18 18 18 22 26 25 25 24 23 23 25 25 23 20 16 13 12 12 14 16 15 15 15 14 13 13 12 12 12 11 10 10 12 13 11 8 7 6 6 6 7 9 11 12 12 12 13 15 16 18 19 20 21
32 32 31 33 34 33 32 31 30 29 27 26 27 26 21 17 15 13 11 8 7 6 7 12 9 5 14 19 18 19 20 19 19 19 17 16 20 25 25 23 24 25 23 24 25 22 18 14 12 11 12 13 15 16 16 15 15 14 14 14 13 12 11 9 11 13 13 11 9 7 6 6 8 10 11 12 12 12 12 13 15 17 18 19 20 20
31 32 30 31 33 33 33 32 31 29 26 25 27 26 23 20 16 13 12 9 6 4 5 11 11 4 8 18 19 19 23 23 23 22 19 18 20 22 23 20 20 23 22 21 21 18 15 13 12 11 12 13 16 17 17 16 15 15 14 14 13 12 10 10 11 13 13 11 9 7 7 8 10 11 12 11 11 11 12 14 16 17 18 19 19 18
29 33 31 30 30 33 36 34 31 29 26 24 25 25 22 21 18 15 13 11 9 6 5 7 11 6 4 12 18 19 24 25 24 24 23 22 22 22 21 19 19 21 19 17 17 15 14 13 12 12 12 13 16 17 17 16 15 15 15 15 13 11 10 10 12 13 13 11 9 8 8 9 11 12 12 11 11 11 12 14 16 17 18 18 17 17
26 29 30 29 29 31 33 33 31 29 27 25 23 22 21 19 18 15 13 13 11 8 7 8 10 8 4 10 18 20 23 26 24 25 27 25 24 22 20 20 22 22 18 17 19 17 15 14 13 13 13 14 16 17 16 16 15 15 16 15 13 12 11 11 12 13 12 10 9 9 10 11 12 13 12 12 11 11 13 14 16 17 17 16 16 16
25 25 28 29 28 27 27 30 31 28 26 25 23 20 18 16 15 13 11 10 8 5 7 11 11 9 6 8 18 22 22 24 24 27 29 28 25 24 22 22 24 22 20 21 22 20 18 16 15 14 15 16 17 17 17 17 16 16 18 16 13 12 13 13 12 13 12 10 9 10 11 12 13 13 12 12 11 12 14 15 16 16 16 15 15 16
25 24 28 31 27 23 23 27 29 26 26 25 23 21 16 13 11 10 9 9 7 3 5 9 12 12 9 8 13 18 19 18 21 28 31 28 25 24 24 25 25 24 24 26 25 23 19 17 17 16 17 18 18 17 17 17 17 18 19 17 15 14 14 14 13 12 11 10 11 12 12 13 13 13 13 12 11 12 14 15 15 15 14 14 15 16
24 22 24 28 27 25 23 26 27 26 27 25 23 24 17 9 8 7 6 6 4 3 5 8 12 12 12 13 12 12 14 16 20 27 29 26 23 24 27 28 28 28 28 29 27 23 19 17 17 17 18 18 18 16 16 16 17 18 19 19 18 17 16 14 13 12 12 12 13 13 13 14 14 13 12 12 12 13 14 15 14 13 13 13 14 16
19 16 18 22 26 29 26 28 32 31 30 28 26 27 19 8 6 6 4 2 2 5 7 9 10 9 10 16 17 14 13 17 21 26 28 26 24 27 31 31 30 30 29 29 26 22 19 17 16 18 19 18 17 15 14 15 17 19 20 21 20 18 15 13 13 13 13 13 13 13 14 14 14 13 12 12 12 13 14 14 14 13 13 14 15 17
18 10 16 21 23 29 29 26 31 34 32 30 27 26 21 12 7 5 5 4 3 4 8 11 7 6 9 11 16 18 16 18 22 27 29 28 27 28 30 31 32 31 30 29 26 23 19 17 16 18 20 18 17 15 14 14 16 19 21 22 21 18 15 14 14 14 14 14 14 14 14 14 14 13 12 12 13 13 14 14 14 13 14 15 16 17
20 10 16 20 16 23 29 24 24 29 30 27 26 24 23 19 12 7 7 8 8 4 5 11 7 6 12 12 14 19 20 21 24 27 30 30 30 29 28 31 33 33 32 30 27 24 20 18 18 19 20 19 18 15 14 13 15 17 20 20 19 16 14 14 14 15 15 15 14 14 14 14 13 12 12 13 13 13 13 13 13 13 14 15 16 18
18 9 14 21 16 15 24 27 24 25 26 27 27 22 18 19 16 10 7 7 9 6 5 9 8 9 13 14 16 19 21 24 26 27 31 30 30 30 29 31 32 32 32 31 28 25 21 19 19 20 19 19 18 16 15 14 14 15 17 17 16 14 13 14 15 15 15 15 14 14 14 14 13 12 12 13 13 13 13 13 13 14 14 15 17 19
18 10 10 20 20 15 17 24 25 24 26 28 30 26 19 17 16 11 6 4 5 5 4 7 9 12 13 11 15 20 21 25 27 28 30 31 31 32 31 29 28 26 26 27 27 25 22 19 19 20 19 17 18 17 16 16 15 14 15 16 15 14 13 14 15 14 14 14 14 14 13 13 13 13 13 13 13 13 13 13 13 14 15 16 17 19
20 11 9 17 19 17 17 21 26 26 28 26 25 29 25 15 13 13 6 3 5 3 2 6 7 12 15 14 14 19 22 25 28 28 30 32 33 33 32 29 26 25 24 23 23 23 22 21 20 21 20 18 18 18 17 17 17 17 17 16 15 14 14 14 14 13 14 14 14 14 13 13 13 12 12 12 13 13 13 13 14 15 16 17 18 19
19 12 10 17 20 20 21 25 30 31 29 23 18 27 30 16 11 16 10 3 4 3 2 4 3 8 17 18 14 16 21 25 28 28 29 31 34 33 32 31 29 27 25 23 23 24 24 22 23 23 21 19 18 17 17 18 19 19 18 17 15 14 15 15 13 13 14 14 14 14 13 13 12 12 12 12 12 13 13 14 14 15 16 17 18 19
18 14 11 19 23 24 26 29 33 33 32 28 21 25 30 18 11 17 16 9 4 2 3 4 1 7 16 19 16 16 18 22 25 26 27 26 28 31 31 31 30 28 28 27 25 25 24 23 24 24 22 21 20 18 18 19 19 19 18 17 16 17 17 16 15 14 14 14 14 13 12 12 12 11 11 11 12 12 13 14 14 15 16 17 18 19
20 18 14 22 28 26 26 26 28 31 32 32 28 27 27 20 15 13 11 13 9 2 3 4 2 8 16 17 19 19 18 20 23 25 26 25 25 27 29 30 30 30 30 31 29 26 25 24 24 24 23 23 22 20 20 19 18 18 17 17 19 20 20 19 17 15 14 14 14 13 12 11 11 11 11 11 12 12 13 14 14 15 16 17 18 19
20 20 15 20 28 25 23 24 24 25 27 29 29 27 25 23 22 16 9 13 14 4 3 5 2 7 16 17 19 21 19 20 22 24 25 25 26 27 28 29 30 32 33 31 30 28 27 25 25 25 24 22 22 22 21 21 19 17 16 18 20 21 21 19 17 15 14 15 14 13 12 11 11 11 11 11 12 13 13 14 14 15 16 17 18 19
18 20 15 14 20 21 19 22 22 22 23 27 30 30 28 26 24 19 11 15 18 11 7 5 2 6 16 18 20 22 21 20 22 24 23 22 25 27 28 30 31 34 34 32 31 30 29 27 26 26 25 23 22 22 23 22 19 17 18 19 19 18 17 17 16 15 15 15 14 13 12 11 11 11 11 11 12 12 13 13 14 15 16 17 19 20
14 18 19 12 11 13 12 13 19 25 27 29 31 32 30 26 23 19 14 15 19 19 16 9 2 6 15 20 22 22 23 22 22 23 22 21 23 25 27 30 32 34 35 33 33 32 31 28 27 27 26 24 24 25 26 22 15 15 19 19 17 15 15 16 16 16 16 15 14 13 11 11 11 10 10 11 12 12 12 13 14 15 16 17 19 20
13 16 21 13 8 9 8 8 17 29 32 28 28 30 29 27 24 22 19 17 15 18 20 15 8 7 12 19 24 24 24 24 24 24 22 21 21 22 25 28 31 33 34 33 33 33 30 28 27 27 26 25 25 26 27 20 10 12 17 17 17 15 15 17 17 17 16 15 14 13 12 11 11 10 10 11 11 11 12 13 14 15 16 18 19 20
16 16 19 15 11 11 11 11 16 26 32 29 27 27 27 27 25 24 23 19 15 16 19 20 17 12 10 14 20 24 24 24 25 24 23 22 21 21 22 26 29 32 32 33 34 33 29 27 28 28 27 26 26 27 27 20 13 13 15 16 17 17 17 18 18 17 16 16 15 13 12 11 10 10 10 10 10 11 12 13 14 15 16 17 18 19
19 15 15 14 12 10 11 13 16 22 28 31 29 26 25 25 26 27 26 21 17 15 15 18 19 16 14 13 14 17 21 24 24 24 24 23 23 22 22 24 27 31 33 35 34 30 27 27 28 29 30 29 28 28 26 20 16 17 17 17 19 20 20 19 18 17 17 16 15 13 11 10 10 10 9 9 10 11 12 13 14 15 16 17 18 19
22 17 14 12 9 7 6 7 11 18 24 27 28 26 25 25 27 29 28 24 21 17 13 15 17 17 17 16 14 13 16 21 22 22 24 24 23 22 22 23 25 28 31 34 33 30 29 29 30 31 32 30 28 29 27 21 19 19 19 18 19 21 21 19 18 17 17 16 14 12 11 10 10 9 9 9 10 11 12 13 14 15 15 16 17 18
22 19 17 13 8 5 4 3 5 13 21 25 26 25 24 24 25 26 25 24 24 20 17 15 16 17 18 18 17 16 16 19 21 21 23 24 24 24 24 25 25 27 30 33 33 32 31 31 31 31 31 30 30 31 29 24 21 20 20 18 17 20 20 19 18 17 16 15 13 11 10 10 9 9 8 9 10 11 12 13 14 14 15 15 16 17
22 19 18 17 11 6 6 6 5 8 18 24 24 23 23 23 24 25 25 26 26 24 20 15 13 15 16 16 17 18 17 19 21 22 23 25 26 26 26 26 25 27 32 34 33 32 31 31 30 29 30 30 30 31 29 24 22 22 21 18 17 19 20 19 18 17 16 15 12 11 11 10 9 8 8 9 10 11 12 13 13 14 14 15 16 17
22 17 16 19 14 7 6 7 5 7 16 22 24 23 23 24 25 26 26 26 27 27 23 18 15 14 14 13 14 16 18 19 21 23 25 26 27 27 27 28 29 31 33 33 31 29 28 26 26 26 27 28 29 30 29 25 23 23 22 20 19 19 19 18 18 17 15 14 12 11 11 10 9 8 8 9 10 10 11 12 13 13 14 15 16 17
24 18 16 19 14 8 6 3 3 9 12 15 22 25 24 24 24 25 25 26 28 28 24 20 18 15 15 15 14 14 17 21 22 23 24 26 28 28 27 27 29 29 27 26 25 22 21 21 22 23 25 28 30 29 26 22 19 20 22 22 21 20 19 18 17 16 14 13 12 12 11 10 9 8 8 9 9 10 11 11 12 13 14 15 16 17
24 19 17 20 15 10 9 6 7 10 7 8 19 26 25 26 26 26 27 27 28 28 25 22 20 18 16 16 16 15 15 18 22 23 23 25 26 27 27 25 22 20 20 21 21 20 20 21 22 24 28 30 29 25 20 18 15 15 19 21 20 19 19 18 17 15 14 13 12 12 11 10 9 8 8 8 9 9 10 11 12 13 14 15 16 16
24 21 18 20 17 12 11 7 4 4 3 6 15 21 24 26 27 28 29 29 28 27 25 22 20 20 18 16 15 14 13 13 17 20 22 23 23 24 25 23 20 17 19 22 22 22 22 22 24 27 29 27 24 21 18 15 14 16 19 20 18 18 18 17 16 15 13 13 12 11 10 9 8 8 8 8 8 9 9 10 11 12 14 14 15 15
25 23 20 20 18 13 11 9 4 3 2 7 13 16 20 23 25 27 28 28 28 26 23 20 17 17 18 16 14 13 15 15 15 17 20 22 22 21 20 20 20 19 19 20 20 21 22 22 25 27 27 25 22 19 16 14 15 18 20 20 19 18 18 17 16 14 13 12 11 10 10 9 8 7 7 7 7 8 9 10 11 12 13 13 13 13
25 25 23 20 15 12 12 10 5 1 1 6 10 11 14 17 19 22 22 22 23 23 21 20 17 16 17 16 14 13 16 19 19 19 20 21 21 19 17 16 18 19 19 20 21 22 23 24 26 26 25 23 19 17 15 15 17 19 20 20 19 19 19 17 15 13 12 11 10 9 9 8 7 7 6 6 6 7 8 10 10 11 11 11 12 13
25 26 26 19 13 13 13 9 4 3 3 5 8 8 10 12 14 16 16 17 21 22 21 20 19 18 18 18 17 16 16 20 23 23 23 23 23 22 20 20 21 22 24 24 24 24 25 26 26 25 24 21 17 15 15 16 18 19 19 19 19 18 18 17 15 13 11 9 9 9 8 7 7 6 5 5 6 7 8 9 9 10 10 11 12 12
25 26 26 21 15 17 15 8 5 8 10 9 6 7 9 10 11 13 13 14 17 19 20 19 18 20 20 19 20 20 19 20 22 24 26 26 26 26 26 26 26 26 25 25 23 23 24 25 25 24 22 18 15 14 15 17 19 19 19 19 19 18 17 16 14 12 10 9 9 8 7 6 6 5 5 5 6 7 7 8 8 9 10 10 10 8
25 27 27 24 21 20 17 9 7 10 13 13 10 9 11 13 12 11 9 10 14 16 16 16 17 19 22 21 21 23 22 19 18 21 26 27 26 27 28 28 27 26 26 26 24 22 21 21 20 19 17 15 14 14 16 19 21 21 21 21 20 19 17 15 13 10 9 9 8 7 7 6 5 5 5 4 5 6 7 7 8 9 8 7 6 5
27 29 29 27 25 23 19 13 9 9 12 13 13 11 13 15 14 12 9 9 12 14 13 14 14 17 21 22 22 23 23 20 17 19 23 25 25 27 28 27 26 25 24 23 22 21 20 17 15 14 13 13 13 15 17 21 23 23 22 21 20 19 17 14 11 10 10 9 8 7 6 6 5 5 4 4 4 5 6 7 7 6 4 4 5 8
27 27 26 27 25 23 22 17 12 12 14 14 14 15 16 17 15 13 12 10 10 13 14 14 15 16 18 21 22 22 23 23 21 20 22 25 27 28 29 29 28 27 25 23 22 22 21 18 15 14 13 13 13 14 18 22 24 24 23 21 20 18 15 13 11 11 10 9 8 7 7 6 6 4 3 3 4 5 5 5 3 2 4 7 8 10
25 24 23 26 24 20 19 14 8 10 16 15 15 17 19 18 15 13 12 11 12 13 15 16 17 17 18 20 22 22 23 24 24 23 23 26 28 29 30 30 29 28 27 26 23 22 20 18 15 14 14 15 14 15 19 23 24 25 24 21 19 17 15 13 12 11 10 9 8 8 7 6 5 4 3 3 4 4 3 0 3 6 8 9 10 11
19 19 19 25 24 18 18 17 12 13 16 16 17 18 17 16 15 13 12 13 14 15 16 17 19 20 21 22 23 24 25 26 26 25 25 27 28 29 29 30 30 29 27 25 23 21 18 16 15 15 16 17 16 16 20 23 24 23 22 20 18 16 14 13 11 10 10 9 9 8 8 7 5 4 3 3 3 2 2 5 7 9 10 10 10 11
16 15 15 22 25 21 20 21 19 17 16 15 17 18 16 15 14 13 12 13 14 15 15 16 18 21 23 24 25 26 27 27 28 27 25 25 27 29 29 30 31 29 27 25 23 21 18 16 16 17 18 18 17 17 20 23 23 22 20 18 17 15 13 12 11 10 10 10 10 9 8 7 5 4 3 3 3 4 7 9 10 11 10 10 9 9
15 14 13 17 22 22 20 20 20 19 17 15 15 15 15 15 14 13 13 14 14 15 15 16 18 20 22 25 26 27 28 28 28 27 25 25 26 28 29 29 30 29 27 26 24 22 20 20 19 19 18 17 17 19 22 24 23 22 20 18 16 15 13 12 11 11 11 11 10 9 8 7 5 4 4 4 6 8 10 11 11 11 10 8 8 8
15 17 16 15 17 18 17 17 19 19 18 17 16 15 15 15 14 15 15 15 15 15 16 17 19 20 21 24 26 28 29 28 26 24 25 26 26 27 29 30 30 29 26 25 23 22 22 21 21 20 19 18 19 21 22 22 21 21 20 19 17 15 14 13 13 13 12 12 11 9 8 6 5 5 6 8 10 11 12 12 11 10 9 7 6 6
14 16 17 16 17 17 16 17 18 18 18 18 17 15 15 14 15 15 15 14 15 15 15 17 18 19 19 21 24 26 28 27 24 24 27 27 26 28 31 31 30 27 24 23 21 21 21 21 21 21 21 20 19 19 19 18 18 18 18 18 17 15 14 14 14 14 13 12 11 9 8 6 7 8 10 11 12 13 12 11 10 9 8 6 5 3
13 14 15 15 16 17 17 17 16 16 16 16 16 15 15 15 15 14 14 14 14 15 15 16 18 18 18 17 19 22 23 23 23 26 28 28 27 28 30 29 27 24 22 21 21 20 20 21 21 21 20 19 19 18 18 18 18 17 17 17 17 16 15 15 15 14 13 12 11 9 8 8 9 12 13 14 14 13 12 10 8 7 6 4 3 2
13 13 13 13 14 14 16 17 16 16 16 16 16 16 16 15 15 14 14 15 15 15 15 16 17 18 17 15 15 17 19 22 25 27 28 27 27 27 27 26 25 23 20 20 23 23 22 22 23 23 21 19 19 18 18 18 17 17 18 18 18 18 17 15 15 14 13 12 10 9 9 11 12 14 15 15 15 14 12 9 7 6 4 3 2 3
12 12 12 12 12 12 13 14 15 17 17 17 16 16 16 16 16 15 15 15 16 16 15 15 17 18 17 16 16 17 18 22 26 27 27 25 24 24 25 24 23 22 21 22 24 26 25 24 24 24 22 19 19 18 18 18 17 17 18 19 20 19 18 17 15 14 12 11 10 10 12 14 15 15 15 15 14 13 11 9 7 5 3 2 2 3
Wind_Direction
203 203 204 206 205 204 202 201 201 201 196 191 192 197 200 200 198 198 190 181 189 191 193 195 196 194 194 190 176 176 181 180 178 174 172 180 186 189 191 194 196 193 192 195 197 198 197 197 198 198 203 206 206 207 202 198 198 196 193 188 183 182 180 179 177 180 182 178 172 170 171 172 176 191 229 272 293 302 308 311 308 308 312 318 322 323
204 207 210 209 207 206 205 203 203 204 199 193 191 192 200 202 199 199 194 179 181 188 193 195 197 199 201 198 183 177 184 188 186 181 181 187 193 199 198 197 200 196 193 195 195 196 198 197 199 200 203 207 208 209 204 196 192 190 188 183 180 179 179 180 182 183 181 175 172 174 177 182 198 233 265 283 297 304 304 302 302 307 316 320 321 323
205 210 210 209 209 207 207 207 206 207 203 198 195 192 198 200 199 200 199 192 179 184 192 194 194 196 199 198 181 174 180 188 191 191 192 195 201 209 206 201 202 199 196 197 196 195 198 198 201 203 205 207 208 210 205 197 192 189 186 183 181 181 182 184 184 182 177 173 173 177 186 202 231 260 275 289 296 298 297 298 305 313 317 319 321 323
204 209 208 207 209 208 207 207 207 208 207 206 202 195 195 197 199 200 199 201 188 183 187 185 187 193 192 188 178 174 176 180 187 192 198 204 207 213 215 211 207 202 200 200 197 194 198 201 203 204 206 208 209 208 205 199 193 187 183 184 184 185 188 187 182 179 176 174 177 184 199 223 247 265 277 287 290 291 295 302 310 315 317 320 323 324
208 209 207 207 209 210 209 208 207 207 207 209 207 200 193 195 200 203 200 201 190 183 180 170 174 188 187 183 181 179 176 181 187 190 198 208 212 215 218 218 217 212 204 203 201 197 199 203 205 206 207 207 207 207 205 200 195 188 185 187 190 192 191 187 182 179 177 179 185 196 217 237 253 269 278 281 286 294 302 310 315 317 320 322 323 322
211 211 208 208 209 209 210 210 209 207 207 211 210 203 194 194 202 205 199 196 191 190 184 175 175 188 188 186 186 186 184 186 194 197 198 208 215 216 217 215 219 223 214 211 209 201 199 205 206 209 212 209 205 205 204 201 199 193 190 191 192 190 188 185 184 182 181 186 195 209 228 246 262 272 277 284 295 306 312 314 315 317 320 321 321 321
209 211 210 210 210 209 210 212 211 209 207 212 212 204 197 199 207 209 203 198 197 190 190 197 202 191 186 189 190 192 194 193 199 204 200 204 212 213 213 211 218 226 225 224 219 202 195 205 207 211 216 211 205 203 202 202 201 196 192 192 188 182 183 187 188 186 188 195 205 218 234 249 264 273 281 293 305 310 311 313 314 316 318 318 320 322
205 206 208 210 211 211 210 210 210 209 207 212 213 207 205 208 209 214 215 215 216 185 175 197 204 201 188 196 196 194 198 199 203 207 200 198 204 207 209 210 216 223 226 233 231 208 194 206 211 214 216 210 204 200 199 201 199 194 190 188 183 178 182 189 192 193 197 204 212 223 237 253 269 279 289 299 305 307 310 313 313 315 316 317 320 322
202 204 207 208 208 213 214 213 212 209 208 213 214 211 212 215 216 225 232 237 246 232 202 194 196 208 214 207 207 201 198 200 201 206 203 198 202 205 206 206 208 213 216 222 224 207 197 208 213 216 215 208 204 199 198 200 195 190 187 183 182 186 191 195 198 200 204 212 218 229 244 260 274 283 291 300 304 307 309 311 312 313 314 316 319 321
205 208 212 213 212 214 215 216 216 212 211 212 215 214 213 217 222 230 240 245 249 241 225 214 198 204 222 212 213 209 205 205 202 205 207 204 203 203 203 202 201 204 206 204 207 202 198 205 211 212 208 203 202 200 199 200 193 188 187 183 188 198 202 204 205 207 211 218 226 239 252 265 277 286 295 302 303 305 306 307 308 309 311 316 319 320
208 208 213 217 218 218 216 216 215 214 214 212 212 208 205 211 218 227 235 233 236 233 224 226 210 206 227 215 213 217 219 218 210 206 208 207 204 201 199 200 196 195 196 197 202 203 198 200 205 205 201 198 199 200 201 200 196 191 188 188 197 204 207 211 212 213 217 224 236 246 258 270 283 293 300 302 302 302 302 304 305 307 312 316 318 321
209 209 211 214 215 214 213 212 211 210 211 211 208 196 187 193 200 214 221 213 222 219 201 219 212 209 224 216 213 222 225 223 213 207 208 206 202 198 195 194 190 188 194 197 200 203 197 196 200 199 197 197 199 201 203 202 199 196 194 196 204 207 209 215 219 220 224 233 243 252 264 277 288 296 298 296 294 295 298 301 303 308 313 315 318 323
200 206 209 211 210 208 207 202 198 201 204 205 199 188 178 170 177 192 203 202 224 209 173 193 199 207 226 223 218 220 214 209 208 206 205 203 200 193 187 188 188 188 194 196 197 200 196 193 198 198 196 197 200 203 205 204 203 202 201 202 207 210 211 217 222 226 231 239 248 259 270 282 290 294 291 288 290 294 298 300 303 309 313 315 320 325
186 196 199 201 202 204 206 198 190 190 194 195 188 183 181 167 169 188 184 173 215 207 196 190 191 206 226 224 221 221 210 202 201 203 203 203 200 192 187 191 195 195 196 195 194 197 196 193 195 198 199 199 200 203 204 204 204 206 206 207 209 212 214 221 226 228 234 242 252 263 273 284 289 287 284 285 292 297 299 302 307 314 317 319 324 326
180 187 193 190 195 201 204 205 202 196 191 191 189 188 191 185 170 174 181 193 179 173 187 184 187 203 203 213 216 214 210 199 194 198 202 203 202 201 199 198 199 199 198 194 194 195 194 193 195 197 200 201 200 204 205 202 202 205 206 208 210 213 217 221 225 227 233 243 252 264 276 284 284 281 282 288 293 296 300 305 312 317 318 321 325 328
186 193 195 186 188 201 202 203 210 203 191 189 191 196 202 199 192 179 181 193 181 150 172 186 194 195 196 213 213 205 205 198 193 196 200 202 203 205 207 204 202 202 199 194 193 194 192 192 196 198 200 201 201 205 207 203 200 201 203 206 210 214 216 218 222 227 234 243 254 267 277 279 277 278 283 289 293 297 303 309 314 316 317 321 326 331
184 185 193 190 184 194 202 202 203 202 194 189 190 192 192 191 192 183 168 175 181 184 182 183 194 190 198 222 216 202 200 196 194 196 199 203 205 205 209 211 208 205 202 196 191 191 192 193 197 198 200 203 203 204 207 206 202 201 203 207 210 212 214 218 224 230 237 247 258 268 273 272 273 278 284 290 294 299 305 311 314 315 317 322 328 332
179 158 177 194 188 179 192 201 204 207 204 197 195 193 185 185 197 192 166 146 173 199 184 173 195 196 197 220 215 204 199 195 196 197 198 205 207 206 209 213 211 207 208 205 195 189 190 194 197 198 199 204 206 206 208 208 208 207 208 208 210 213 219 226 231 236 244 253 261 266 266 266 269 276 284 290 294 301 308 312 314 315 317 324 329 331
183 163 169 191 191 182 178 190 201 207 209 208 206 203 198 196 201 189 170 156 175 187 163 169 202 208 202 208 211 206 201 196 196 197 201 206 208 206 206 207 209 209 211 211 200 191 191 193 196 198 199 204 209 211 211 212 213 213 214 214 214 220 229 235 239 244 249 254 259 260 258 260 267 276 284 289 295 304 310 312 313 314 318 325 328 329
187 174 175 182 186 187 183 188 196 198 201 205 209 208 205 205 202 192 186 178 173 177 167 162 191 219 207 205 212 213 206 201 198 198 203 208 209 208 205 204 206 208 209 209 203 198 197 195 195 199 202 206 212 216 216 218 221 220 221 221 223 230 238 242 245 246 248 250 252 251 253 260 270 278 285 291 299 306 309 310 311 315 320 324 325 327
190 184 180 180 183 191 194 196 198 195 193 191 192 201 203 200 192 194 198 202 187 153 168 164 194 217 204 203 211 215 212 208 204 203 208 213 214 212 209 204 202 204 207 207 205 205 204 201 199 200 204 210 216 217 218 223 227 228 229 229 231 235 240 245 248 247 247 247 245 247 254 264 273 280 286 292 300 304 306 309 312 317 322 323 325 329
191 190 182 180 185 194 201 202 202 202 201 196 193 197 200 194 181 181 197 206 205 188 165 178 220 205 196 200 207 210 213 211 207 207 210 213 215 216 215 210 203 202 204 204 204 205 206 205 203 202 205 212 218 220 219 220 222 225 228 230 232 235 239 243 245 246 246 243 242 246 254 264 271 278 284 290 297 302 305 311 316 320 324 325 328 331
190 193 184 184 190 194 202 207 207 208 208 206 203 201 200 198 193 190 186 190 196 211 197 197 234 192 186 194 203 206 211 211 209 210 211 212 212 214 215 213 208 207 207 204 201 204 206 204 202 203 204 210 217 221 222 221 221 224 226 227 230 233 237 239 240 243 241 238 240 245 252 262 270 275 282 289 296 302 308 315 320 323 326 327 330 331
183 191 179 172 185 190 200 210 209 207 206 208 209 206 204 202 199 199 196 188 194 202 195 192 256 188 180 186 196 202 206 209 210 212 213 213 212 213 212 210 210 211 209 204 203 208 210 206 205 205 203 209 218 223 227 229 233 237 232 228 230 232 233 234 237 239 235 232 237 243 251 261 266 272 279 288 297 304 312 318 322 325 327 328 329 330
170 185 174 150 158 176 189 201 202 202 204 207 208 207 208 207 201 201 200 190 195 203 201 198 227 194 182 184 191 197 203 206 210 212 212 210 209 210 209 206 209 213 210 203 204 212 216 212 212 209 207 217 225 226 229 232 236 239 233 229 232 233 231 234 236 234 229 230 237 242 250 257 261 269 278 289 298 306 315 320 323 326 327 328 328 328
166 178 179 170 160 171 180 186 191 195 198 205 207 206 208 209 205 204 200 191 195 202 202 205 217 210 192 189 192 197 201 205 208 210 210 207 204 204 204 205 209 213 212 206 206 213 214 207 209 213 216 225 229 227 231 235 237 240 235 231 232 231 231 234 233 228 225 229 236 241 248 253 258 268 279 289 299 308 315 319 322 325 325 325 326 326
179 177 181 185 181 178 189 199 198 196 197 201 206 206 206 207 208 210 207 203 204 203 204 212 221 225 217 201 198 200 203 206 208 209 208 205 201 199 200 204 208 211 214 214 213 213 209 203 208 217 224 230 232 232 235 240 249 253 249 242 236 233 233 232 228 224 225 230 235 240 245 250 257 268 279 290 300 308 314 318 321 322 322 323 323 324
192 184 179 182 184 179 182 191 200 203 201 201 203 203 203 204 207 212 214 213 212 208 211 219 223 230 233 225 217 212 209 211 211 208 206 203 200 199 198 201 205 208 212 218 219 215 211 210 212 218 226 233 239 240 238 242 257 262 260 255 244 234 230 227 222 221 224 229 234 238 243 248 258 269 279 289 298 306 314 317 319 318 319 320 321 323
202 197 186 183 191 193 183 183 197 204 205 204 204 203 204 203 205 210 215 219 219 218 224 228 228 231 232 231 234 231 220 220 219 212 206 203 200 201 203 205 207 209 214 221 223 216 211 213 217 224 232 236 238 238 236 245 261 264 264 261 244 227 223 219 216 219 223 228 233 236 240 248 258 267 276 287 298 308 314 316 317 317 318 320 322 324
206 208 203 200 207 222 239 248 214 205 204 204 204 205 206 206 206 209 213 217 222 225 230 235 232 227 224 223 225 223 219 222 224 219 211 206 203 203 208 214 215 212 213 217 218 214 215 224 231 235 237 236 236 239 242 251 262 262 261 256 234 216 214 213 212 216 222 227 230 232 237 246 254 262 274 287 298 308 313 315 317 318 319 321 323 325
203 207 210 212 217 239 258 266 266 214 200 200 202 203 206 208 207 209 211 213 218 223 224 225 222 217 214 213 213 211 210 213 218 219 215 212 210 208 210 216 218 213 211 213 216 221 229 237 239 237 238 242 248 254 259 264 264 258 252 239 218 207 207 209 211 215 220 224 226 230 236 243 250 259 273 286 298 307 312 316 318 319 321 323 324 326
198 199 203 206 210 227 243 255 265 205 190 196 201 202 205 208 207 207 209 211 215 218 217 214 216 218 217 216 214 211 210 211 213 215 215 215 216 216 214 214 214 215 215 217 223 230 237 241 242 243 248 255 259 262 266 268 265 259 245 222 206 204 206 207 210 214 217 220 224 229 235 240 247 258 272 284 298 307 312 317 319 320 323 323 325 327
199 198 194 193 198 208 203 191 166 168 174 193 200 201 205 208 207 207 209 211 213 216 216 216 218 223 225 226 227 223 217 214 212 212 213 214 216 219 218 213 211 213 217 221 225 230 234 237 242 248 252 257 260 263 267 269 267 259 239 215 201 201 204 205 207 211 213 217 223 229 234 239 246 257 272 286 300 309 312 317 319 321 323 324 326 327
198 201 192 186 190 193 177 143 129 153 166 193 197 200 203 205 207 208 209 210 212 215 220 225 227 227 226 225 229 233 228 217 214 216 218 218 218 220 219 214 210 209 214 219 222 225 227 231 238 246 251 257 262 267 268 264 255 240 223 211 202 200 201 202 204 206 209 216 223 228 232 239 247 259 276 290 302 309 313 317 319 322 324 324 325 327
195 197 189 184 187 185 175 166 132 137 169 190 190 197 203 204 205 208 210 212 214 216 219 223 225 223 220 218 220 227 229 221 219 221 222 221 221 221 219 211 200 198 207 213 217 221 227 234 242 249 255 261 266 267 262 250 231 213 204 202 203 203 203 201 200 203 208 215 221 227 233 240 250 263 280 292 301 309 313 317 319 321 322 323 326 329
194 191 184 179 182 179 173 178 171 73 97 165 173 187 198 201 204 207 211 214 215 215 212 208 208 210 209 210 214 220 220 218 219 218 216 216 216 215 216 206 192 192 204 213 219 226 234 241 246 251 257 262 263 260 252 232 214 204 198 194 198 204 206 202 198 202 209 214 220 228 235 242 251 265 280 291 300 308 311 314 317 319 322 326 329 330
194 189 183 176 174 174 171 175 183 15 42 164 161 167 180 188 196 201 205 206 204 203 199 196 197 200 202 208 216 220 216 213 214 214 211 212 209 205 205 200 194 199 210 217 223 230 235 240 245 251 257 257 254 249 237 218 207 203 197 192 194 201 206 205 202 203 208 213 220 228 233 241 253 266 277 287 296 303 307 312 316 320 324 327 327 328
194 190 187 182 172 172 172 168 182 267 262 195 170 164 170 174 181 188 195 198 195 194 196 197 200 204 209 213 216 219 219 215 213 212 208 206 204 201 200 198 199 207 215 218 223 228 234 240 247 252 254 251 246 240 226 210 204 202 197 193 193 198 204 207 207 206 209 213 219 224 230 240 252 261 269 280 291 299 306 311 316 321 324 325 328 334
192 192 193 191 180 173 170 158 171 219 233 228 209 194 190 186 179 180 191 199 196 195 200 204 207 210 213 216 215 216 221 222 217 211 206 204 201 199 198 198 199 205 210 215 221 229 237 244 247 248 247 246 242 232 216 206 203 201 196 194 194 198 202 206 207 208 210 213 216 220 228 236 245 251 259 274 289 299 306 311 316 320 323 329 338 350
193 194 196 195 188 183 181 173 181 216 231 234 232 220 207 203 193 182 188 196 192 192 198 203 208 212 214 216 218 217 219 224 222 212 207 206 203 200 198 198 199 202 205 210 217 225 234 241 242 239 241 243 235 219 207 203 200 196 193 191 191 195 200 204 208 209 210 213 214 216 221 224 231 240 252 271 287 297 304 309 315 321 329 345 8 37
194 195 196 198 194 191 194 196 201 224 230 223 223 225 212 202 195 192 196 194 190 196 200 199 205 212 215 217 220 219 217 217 220 214 207 205 206 203 199 198 199 202 208 213 219 224 227 229 229 230 234 234 226 214 208 204 197 191 188 187 188 193 198 202 205 207 209 211 209 207 209 214 223 233 246 268 283 293 302 309 317 330 360 43 74 87
193 194 196 198 196 195 200 204 212 231 233 223 221 221 208 198 197 205 211 205 197 202 206 206 209 213 215 217 220 220 216 211 212 213 207 205 207 205 202 201 200 201 206 211 216 223 225 221 216 220 226 227 224 216 210 204 195 185 183 185 188 192 196 200 204 207 206 202 198 197 202 209 217 223 232 257 277 291 301 311 331 42 84 96 101 96
192 193 194 196 196 193 193 193 199 224 227 223 218 213 205 202 208 217 219 213 208 208 210 212 214 215 216 218 219 220 217 212 210 209 207 209 212 210 207 204 201 200 205 209 212 220 222 214 209 215 223 227 225 215 205 200 191 180 177 182 187 191 195 201 205 204 198 192 190 194 199 204 206 205 220 251 275 288 294 319 106 110 111 110 104 94
187 191 194 198 199 193 188 193 205 216 216 215 214 212 210 212 220 228 230 226 224 223 221 218 216 216 218 220 220 220 220 218 215 212 208 208 211 212 210 204 199 200 206 210 215 218 214 204 203 212 220 225 222 208 196 193 189 180 175 178 185 189 193 197 198 195 189 185 188 192 193 194 194 196 220 254 265 249 161 132 127 122 117 111 101 91
188 191 195 199 202 204 203 208 214 216 213 214 215 218 222 226 231 237 238 235 232 231 230 226 221 219 219 220 221 222 222 221 220 217 212 208 209 212 210 204 201 202 205 210 216 214 203 195 203 214 220 221 215 202 192 188 183 176 172 174 179 183 188 191 189 186 184 184 186 188 186 185 187 203 227 236 207 163 145 136 132 126 118 110 99 89
200 200 202 200 201 207 212 212 213 217 221 223 223 226 227 228 231 233 233 234 233 230 230 229 225 224 223 221 222 224 225 225 225 220 213 208 208 208 205 202 202 203 205 212 216 207 192 192 205 214 216 216 208 197 190 185 176 169 169 174 181 187 192 192 188 186 186 185 183 181 179 181 190 211 213 187 164 152 143 138 134 128 119 110 98 87
211 212 217 212 205 208 213 213 214 218 224 225 226 227 225 223 225 226 226 229 229 229 229 228 227 228 227 224 223 223 225 230 232 224 212 206 204 203 201 202 202 202 205 213 214 200 188 195 206 208 207 208 203 193 186 182 177 174 176 182 189 196 198 194 190 188 186 182 179 178 179 185 195 195 178 163 156 149 143 140 137 129 119 108 95 83
218 220 224 224 219 219 222 223 223 224 226 226 227 226 224 223 222 222 224 226 228 230 232 231 231 233 232 229 225 223 225 231 232 220 208 202 198 197 200 203 204 204 207 209 204 193 190 198 206 207 205 202 196 186 181 181 183 186 189 190 192 194 191 185 184 184 181 179 179 180 183 189 189 177 163 156 153 148 143 143 141 129 117 105 91 77
226 225 227 231 231 231 232 232 232 233 232 231 230 228 225 223 223 223 226 228 231 233 233 233 234 235 236 235 228 223 223 223 216 206 200 195 192 196 200 202 205 209 211 204 194 190 193 198 201 205 204 197 188 183 180 179 183 190 194 192 187 182 179 179 181 181 179 179 180 182 185 185 177 167 160 155 152 146 143 144 139 127 117 107 90 64
228 228 230 234 236 238 239 238 237 236 234 232 231 228 226 225 226 228 231 233 235 235 233 232 232 233 235 233 221 212 209 205 198 194 191 190 191 196 198 200 203 209 209 199 191 190 193 194 197 201 200 191 184 182 179 179 183 189 191 186 179 175 174 177 181 182 181 181 183 182 179 174 168 164 160 156 152 147 144 142 136 126 118 105 75 44
229 229 229 231 234 237 239 238 237 237 234 230 227 227 227 229 231 234 236 238 238 236 234 233 232 232 233 228 211 198 195 194 189 185 185 188 192 194 197 201 205 205 203 199 195 193 191 188 191 195 192 186 183 180 176 177 182 186 185 181 175 173 174 175 178 183 184 183 182 178 172 167 164 162 160 158 154 150 145 140 133 126 114 88 51 29
Height
3068 3070 3069 3070 3073 3078 3083 3086 3089 3092 3095 3097 3098 3100 3102 3104 3105 3107 3108 3109 3110 3112 3114 3116 3117 3119 3120 3122 3123 3125 3126 3128 3129 3131 3133 3135 3136 3137 3137 3138 3140 3141 3144 3146 3147 3149 3150 3152 3153 3154 3155 3156 3156 3157 3158 3159 3160 3162 3163 3164 3166 3167 3169 3170 3171 3172 3174 3175 3176 3176 3177 3178 3179 3179 3179 3179 3179 3179 3178 3177 3176 3175 3174 3173 3172 3171
3066 3066 3066 3070 3075 3080 3084 3086 3089 3091 3093 3096 3097 3099 3101 3103 3104 3106 3107 3108 3109 3111 3113 3114 3116 3118 3120 3121 3123 3124 3126 3127 3129 3131 3132 3134 3136 3136 3135 3136 3138 3140 3142 3144 3146 3148 3149 3151 3153 3154 3154 3155 3156 3157 3158 3159 3160 3161 3163 3164 3165 3167 3168 3169 3171 3172 3173 3174 3175 3176 3177 3178 3178 3178 3179 3179 3178 3178 3177 3176 3175 3174 3173 3172 3171 3170
3062 3062 3066 3072 3077 3080 3083 3085 3088 3090 3093 3095 3096 3098 3100 3102 3103 3105 3106 3108 3109 3110 3112 3113 3115 3117 3118 3120 3122 3124 3125 3126 3128 3129 3131 3133 3134 3135 3135 3134 3135 3138 3141 3142 3143 3146 3149 3150 3152 3153 3154 3155 3156 3157 3158 3159 3160 3161 3162 3164 3165 3166 3168 3169 3171 3172 3173 3174 3175 3176 3177 3177 3178 3178 3178 3178 3177 3176 3175 3174 3174 3173 3172 3171 3169 3168
3058 3060 3066 3072 3075 3078 3081 3084 3086 3089 3091 3093 3095 3097 3099 3101 3103 3104 3105 3107 3108 3110 3111 3113 3114 3115 3116 3119 3121 3122 3123 3125 3126 3128 3130 3132 3134 3135 3136 3135 3136 3137 3139 3141 3143 3145 3148 3150 3152 3153 3154 3155 3156 3157 3158 3159 3160 3161 3163 3164 3165 3166 3168 3169 3171 3172 3173 3174 3175 3176 3176 3177 3177 3177 3177 3177 3176 3175 3174 3173 3173 3172 3170 3169 3168 3167
3057 3061 3067 3071 3073 3076 3079 3082 3084 3087 3089 3091 3094 3096 3098 3100 3101 3103 3104 3106 3108 3109 3110 3112 3113 3114 3115 3117 3119 3120 3122 3123 3125 3127 3129 3131 3132 3134 3135 3138 3140 3140 3140 3141 3144 3145 3147 3150 3152 3153 3154 3154 3155 3156 3157 3159 3160 3161 3163 3164 3165 3166 3168 3169 3170 3172 3173 3174 3175 3175 3176 3176 3176 3176 3176 3175 3175 3174 3173 3172 3171 3170 3169 3168 3166 3165
3058 3062 3066 3068 3071 3074 3077 3079 3081 3085 3088 3090 3092 3094 3097 3099 3100 3102 3103 3105 3107 3108 3109 3110 3112 3113 3114 3115 3117 3119 3120 3122 3124 3125 3128 3130 3130 3132 3134 3137 3140 3142 3143 3142 3142 3144 3147 3150 3151 3152 3153 3153 3154 3155 3157 3158 3159 3161 3162 3164 3165 3166 3168 3169 3170 3172 3173 3174 3175 3175 3175 3176 3176 3176 3175 3174 3173 3173 3172 3171 3170 3168 3167 3166 3165 3164
3057 3061 3064 3066 3069 3072 3075 3077 3080 3083 3086 3088 3090 3094 3097 3098 3099 3101 3103 3104 3106 3107 3107 3108 3109 3110 3112 3113 3115 3117 3119 3120 3122 3123 3126 3127 3128 3130 3133 3136 3138 3141 3144 3143 3142 3143 3147 3150 3151 3151 3152 3152 3153 3154 3156 3157 3159 3160 3162 3163 3165 3166 3167 3169 3170 3171 3172 3173 3174 3175 3175 3175 3175 3175 3174 3173 3172 3172 3171 3170 3169 3167 3166 3165 3164 3163
3054 3058 3062 3064 3068 3070 3072 3074 3078 3082 3085 3087 3089 3093 3096 3097 3099 3101 3102 3104 3105 3106 3106 3107 3107 3109 3110 3111 3113 3115 3117 3119 3120 3121 3124 3125 3127 3130 3132 3135 3137 3140 3143 3145 3146 3145 3148 3150 3151 3151 3151 3152 3153 3154 3155 3156 3158 3160 3161 3163 3164 3166 3167 3168 3170 3171 3172 3173 3174 3175 3175 3175 3174 3174 3173 3172 3172 3171 3170 3169 3167 3166 3165 3164 3163 3162
3053 3057 3059 3062 3066 3068 3070 3073 3077 3081 3084 3086 3089 3093 3095 3097 3099 3100 3102 3103 3104 3106 3106 3106 3107 3108 3108 3109 3110 3112 3114 3116 3118 3120 3122 3124 3125 3128 3131 3133 3136 3138 3142 3146 3148 3147 3148 3149 3150 3151 3151 3152 3152 3153 3154 3156 3157 3159 3161 3162 3164 3165 3166 3168 3169 3170 3172 3173 3174 3174 3174 3174 3174 3173 3172 3171 3170 3170 3169 3167 3166 3165 3165 3164 3163 3161
3054 3057 3060 3062 3064 3066 3069 3074 3077 3080 3083 3086 3089 3092 3095 3097 3099 3100 3101 3102 3103 3104 3104 3105 3107 3107 3106 3107 3108 3110 3111 3113 3116 3118 3120 3122 3124 3126 3129 3131 3133 3136 3141 3144 3146 3146 3146 3148 3149 3150 3150 3151 3152 3153 3154 3155 3157 3158 3160 3161 3163 3164 3165 3167 3168 3169 3171 3172 3173 3173 3173 3173 3173 3172 3171 3170 3169 3168 3167 3167 3166 3165 3164 3163 3162 3161
3054 3057 3060 3061 3063 3066 3070 3073 3076 3080 3083 3085 3088 3090 3094 3096 3098 3099 3100 3101 3102 3102 3102 3104 3106 3106 3105 3105 3106 3107 3108 3111 3114 3116 3117 3118 3121 3123 3126 3128 3130 3134 3139 3141 3144 3144 3144 3145 3147 3148 3149 3150 3151 3152 3153 3154 3156 3157 3159 3160 3161 3163 3164 3166 3167 3168 3170 3171 3171 3171 3171 3171 3171 3170 3170 3169 3168 3167 3166 3166 3165 3165 3163 3162 3161 3160
3053 3055 3056 3057 3061 3065 3069 3071 3075 3078 3081 3083 3085 3088 3092 3095 3097 3099 3099 3100 3100 3099 3100 3102 3104 3105 3104 3103 3104 3105 3107 3109 3112 3113 3114 3116 3118 3121 3124 3126 3128 3132 3135 3138 3140 3141 3141 3143 3145 3146 3147 3149 3149 3150 3152 3153 3155 3157 3158 3159 3160 3162 3163 3165 3166 3167 3169 3169 3169 3170 3170 3170 3170 3169 3168 3167 3167 3166 3166 3165 3164 3163 3162 3161 3160 3159
3051 3052 3053 3056 3060 3063 3066 3068 3072 3076 3078 3081 3083 3086 3089 3092 3095 3097 3097 3098 3098 3098 3099 3101 3102 3103 3102 3101 3103 3104 3105 3107 3109 3111 3113 3115 3117 3119 3122 3123 3125 3129 3132 3134 3137 3139 3140 3141 3143 3144 3146 3147 3148 3150 3151 3153 3154 3156 3157 3158 3159 3160 3162 3164 3165 3166 3167 3168 3168 3168 3168 3168 3168 3167 3167 3166 3165 3165 3164 3164 3163 3162 3161 3160 3159 3158
3049 3051 3052 3054 3057 3060 3062 3064 3066 3069 3073 3077 3079 3081 3084 3086 3091 3094 3094 3095 3096 3097 3098 3100 3100 3100 3099 3099 3100 3102 3103 3103 3105 3108 3110 3113 3115 3117 3120 3121 3123 3126 3129 3132 3135 3137 3138 3139 3141 3143 3145 3146 3147 3149 3150 3152 3153 3155 3156 3157 3158 3159 3161 3162 3164 3165 3166 3166 3167 3167 3167 3167 3166 3166 3165 3165 3164 3164 3163 3162 3161 3160 3159 3158 3157 3156
3045 3048 3049 3052 3054 3056 3060 3062 3064 3066 3070 3075 3077 3080 3081 3081 3085 3089 3090 3092 3094 3095 3097 3099 3099 3097 3096 3096 3097 3099 3101 3101 3103 3105 3107 3109 3112 3115 3117 3119 3121 3124 3126 3130 3132 3134 3136 3138 3140 3142 3143 3145 3146 3148 3149 3150 3152 3153 3155 3156 3158 3159 3160 3162 3163 3164 3164 3165 3165 3165 3165 3165 3165 3164 3164 3163 3162 3162 3161 3160 3159 3158 3157 3156 3155 3154
3043 3045 3047 3051 3054 3055 3058 3062 3065 3068 3071 3074 3076 3079 3080 3080 3083 3086 3087 3089 3091 3093 3095 3096 3095 3094 3094 3095 3095 3097 3098 3099 3101 3102 3104 3107 3109 3112 3115 3117 3119 3121 3123 3126 3129 3131 3134 3136 3138 3141 3142 3144 3145 3147 3148 3150 3151 3152 3154 3156 3157 3159 3160 3161 3162 3162 3163 3163 3163 3164 3163 3163 3163 3162 3162 3161 3161 3160 3159 3158 3157 3157 3156 3154 3153 3152
3042 3045 3047 3051 3053 3055 3058 3060 3063 3066 3069 3071 3074 3076 3078 3080 3082 3084 3086 3088 3090 3091 3092 3093 3093 3093 3094 3093 3093 3094 3096 3097 3099 3100 3103 3105 3107 3110 3112 3114 3116 3118 3120 3122 3124 3128 3132 3135 3137 3139 3141 3143 3144 3146 3147 3149 3150 3152 3153 3155 3157 3158 3159 3160 3161 3161 3161 3162 3162 3162 3161 3161 3161 3161 3160 3160 3159 3158 3157 3156 3156 3155 3154 3153 3151 3150
3040 3045 3047 3049 3052 3055 3057 3060 3063 3065 3066 3068 3070 3073 3077 3080 3081 3082 3084 3087 3088 3088 3089 3091 3091 3092 3092 3090 3090 3092 3094 3095 3097 3099 3101 3103 3105 3107 3109 3112 3116 3119 3121 3122 3122 3125 3130 3134 3136 3138 3140 3142 3144 3145 3146 3148 3149 3151 3153 3154 3156 3157 3158 3159 3159 3159 3160 3160 3160 3160 3159 3159 3159 3159 3158 3158 3157 3156 3156 3155 3154 3153 3152 3151 3150 3149
3040 3044 3047 3049 3052 3054 3056 3058 3061 3062 3064 3066 3068 3071 3075 3076 3077 3079 3082 3084 3086 3087 3088 3090 3090 3089 3089 3088 3089 3091 3092 3094 3095 3097 3098 3100 3102 3105 3108 3112 3116 3119 3121 3123 3124 3127 3130 3133 3135 3137 3139 3141 3143 3144 3145 3147 3148 3150 3151 3153 3154 3155 3156 3157 3157 3157 3158 3158 3158 3158 3158 3158 3158 3157 3157 3156 3155 3155 3154 3153 3153 3152 3151 3149 3148 3147
3039 3042 3045 3047 3050 3053 3054 3054 3055 3056 3060 3065 3068 3070 3071 3072 3074 3077 3079 3080 3082 3085 3087 3089 3090 3088 3086 3087 3088 3089 3091 3092 3093 3095 3096 3097 3100 3103 3107 3110 3113 3116 3119 3123 3125 3128 3130 3132 3134 3136 3138 3140 3141 3143 3144 3145 3146 3148 3149 3151 3152 3153 3154 3154 3155 3156 3156 3156 3156 3156 3156 3156 3156 3155 3155 3154 3154 3153 3153 3152 3151 3150 3149 3148 3147 3146
3039 3040 3042 3045 3048 3050 3049 3049 3050 3053 3057 3061 3064 3066 3068 3071 3073 3076 3079 3079 3080 3083 3085 3086 3088 3085 3084 3086 3087 3087 3089 3091 3092 3094 3095 3097 3099 3103 3106 3109 3111 3114 3117 3121 3124 3126 3129 3130 3132 3134 3136 3138 3140 3141 3142 3143 3145 3146 3148 3150 3150 3151 3151 3152 3153 3154 3154 3154 3154 3154 3154 3154 3154 3154 3153 3153 3153 3152 3152 3151 3150 3149 3148 3146 3145 3144
3037 3039 3040 3042 3043 3045 3046 3048 3051 3054 3056 3058 3061 3063 3066 3069 3072 3074 3077 3078 3080 3081 3082 3083 3082 3081 3082 3084 3085 3086 3087 3088 3090 3092 3093 3096 3098 3101 3104 3107 3110 3112 3114 3118 3121 3125 3127 3129 3131 3133 3135 3137 3138 3140 3141 3142 3143 3145 3146 3147 3148 3148 3149 3150 3151 3151 3152 3152 3152 3152 3153 3152 3152 3152 3152 3152 3151 3151 3150 3149 3148 3147 3146 3145 3143 3142
3036 3038 3039 3040 3041 3045 3047 3050 3052 3054 3057 3059 3061 3063 3065 3067 3069 3070 3072 3075 3079 3080 3080 3080 3078 3077 3079 3081 3082 3084 3085 3087 3088 3089 3091 3093 3096 3099 3101 3105 3108 3110 3112 3116 3120 3123 3125 3127 3129 3131 3133 3135 3137 3139 3140 3140 3142 3143 3144 3145 3145 3146 3148 3148 3149 3149 3150 3150 3151 3151 3151 3151 3151 3151 3151 3151 3150 3149 3148 3147 3146 3145 3144 3143 3142 3141
3035 3036 3038 3040 3043 3047 3049 3050 3052 3054 3056 3057 3058 3060 3061 3063 3066 3069 3070 3073 3077 3078 3078 3079 3077 3075 3076 3078 3080 3082 3084 3085 3086 3087 3089 3091 3094 3096 3099 3102 3105 3108 3111 3114 3118 3120 3123 3125 3127 3129 3132 3134 3135 3136 3137 3138 3140 3141 3142 3143 3144 3145 3146 3146 3147 3147 3148 3148 3149 3149 3149 3149 3149 3150 3149 3149 3148 3148 3147 3146 3145 3144 3142 3141 3140 3139
3032 3034 3036 3038 3041 3046 3047 3048 3049 3050 3051 3052 3053 3056 3059 3062 3066 3069 3071 3072 3073 3074 3076 3077 3075 3074 3075 3076 3078 3080 3082 3083 3084 3085 3087 3089 3091 3094 3097 3100 3102 3105 3109 3112 3115 3117 3120 3123 3125 3128 3130 3132 3133 3134 3135 3137 3139 3139 3140 3141 3142 3142 3143 3144 3145 3145 3146 3147 3147 3147 3147 3148 3148 3148 3148 3147 3147 3146 3145 3144 3143 3142 3141 3140 3139 3138
3030 3032 3034 3035 3037 3039 3041 3041 3041 3043 3046 3049 3052 3055 3058 3061 3064 3066 3069 3070 3070 3071 3073 3074 3073 3074 3075 3075 3076 3078 3080 3081 3082 3083 3085 3087 3089 3092 3095 3097 3100 3102 3106 3109 3112 3114 3117 3121 3124 3126 3128 3130 3130 3131 3133 3135 3137 3138 3138 3139 3140 3140 3141 3142 3142 3143 3144 3145 3145 3145 3146 3146 3146 3146 3146 3146 3145 3144 3143 3142 3142 3141 3140 3139 3138 3137
3030 3031 3033 3035 3035 3036 3037 3038 3039 3042 3045 3048 3051 3053 3056 3059 3062 3065 3067 3067 3067 3069 3071 3071 3073 3074 3075 3075 3076 3077 3078 3079 3080 3082 3083 3085 3087 3090 3093 3096 3098 3101 3104 3107 3108 3111 3116 3120 3122 3124 3126 3127 3128 3129 3131 3133 3135 3136 3137 3137 3137 3138 3139 3139 3140 3141 3142 3143 3143 3144 3144 3144 3145 3145 3145 3144 3143 3143 3142 3141 3140 3139 3139 3138 3137 3136
3029 3031 3033 3034 3036 3037 3038 3039 3040 3042 3043 3046 3048 3051 3054 3057 3060 3062 3063 3064 3067 3068 3069 3070 3072 3074 3074 3075 3076 3077 3077 3078 3079 3081 3082 3084 3086 3088 3091 3094 3096 3099 3103 3105 3107 3111 3116 3119 3120 3122 3124 3125 3126 3127 3129 3131 3133 3133 3134 3134 3135 3136 3136 3137 3138 3139 3140 3141 3141 3142 3142 3143 3143 3143 3143 3142 3142 3141 3140 3140 3139 3138 3138 3137 3136 3134
3029 3030 3032 3033 3035 3036 3037 3038 3039 3041 3042 3045 3047 3050 3052 3054 3057 3059 3061 3063 3066 3067 3067 3069 3071 3072 3073 3075 3075 3076 3077 3077 3078 3080 3081 3083 3085 3087 3089 3092 3095 3098 3101 3103 3107 3111 3115 3116 3118 3120 3121 3122 3123 3124 3126 3129 3130 3130 3131 3131 3131 3132 3133 3134 3136 3137 3138 3139 3139 3140 3140 3141 3141 3141 3141 3141 3140 3140 3139 3138 3138 3137 3136 3135 3134 3133
3028 3030 3031 3033 3034 3035 3036 3037 3038 3039 3041 3043 3046 3048 3050 3053 3055 3057 3060 3062 3064 3065 3067 3068 3069 3070 3071 3073 3074 3075 3076 3076 3078 3079 3081 3082 3084 3086 3089 3091 3094 3096 3099 3102 3105 3109 3111 3114 3116 3117 3118 3120 3121 3121 3123 3126 3127 3127 3127 3128 3128 3129 3130 3132 3133 3135 3136 3137 3138 3138 3139 3139 3139 3139 3139 3139 3139 3138 3138 3137 3136 3136 3135 3134 3133 3132
3027 3029 3031 3033 3034 3035 3036 3036 3036 3037 3039 3042 3044 3047 3049 3051 3053 3055 3058 3060 3062 3064 3066 3067 3067 3068 3070 3071 3072 3073 3074 3075 3076 3078 3080 3082 3083 3085 3088 3090 3092 3095 3098 3100 3103 3106 3109 3111 3113 3115 3116 3117 3118 3119 3121 3123 3123 3124 3124 3124 3125 3126 3128 3130 3131 3133 3134 3135 3136 3136 3137 3137 3137 3137 3137 3137 3137 3137 3136 3136 3135 3134 3134 3133 3132 3130
3026 3028 3030 3032 3034 3035 3035 3036 3035 3036 3038 3041 3043 3044 3047 3048 3050 3052 3054 3057 3059 3062 3064 3065 3066 3067 3069 3070 3070 3071 3073 3074 3075 3077 3079 3081 3082 3084 3086 3089 3091 3094 3097 3099 3102 3105 3108 3110 3112 3113 3114 3114 3116 3117 3118 3119 3120 3121 3121 3122 3122 3124 3126 3128 3129 3131 3132 3133 3134 3135 3135 3135 3136 3136 3136 3136 3136 3135 3135 3134 3134 3133 3132 3131 3130 3129
3025 3027 3029 3032 3034 3035 3035 3035 3035 3036 3038 3040 3040 3042 3044 3046 3048 3050 3053 3055 3058 3060 3062 3064 3065 3067 3068 3069 3069 3070 3072 3073 3074 3076 3077 3079 3081 3083 3085 3087 3090 3094 3097 3100 3103 3106 3107 3109 3110 3111 3111 3112 3113 3114 3115 3116 3116 3117 3119 3120 3120 3122 3124 3126 3127 3129 3130 3131 3132 3133 3133 3134 3134 3134 3135 3134 3134 3134 3133 3133 3133 3132 3131 3130 3129 3128
3024 3027 3029 3031 3033 3034 3035 3035 3035 3036 3037 3038 3038 3040 3043 3044 3047 3049 3051 3053 3056 3058 3061 3063 3064 3066 3067 3068 3069 3070 3071 3072 3073 3074 3076 3078 3080 3082 3083 3086 3089 3092 3096 3100 3103 3104 3105 3106 3107 3108 3109 3109 3110 3111 3112 3113 3113 3114 3116 3119 3120 3121 3123 3124 3125 3126 3128 3129 3130 3131 3132 3132 3133 3133 3133 3133 3133 3132 3132 3132 3131 3131 3130 3129 3128 3127
3023 3026 3029 3030 3032 3033 3035 3036 3036 3037 3037 3037 3038 3040 3042 3043 3045 3048 3050 3052 3054 3057 3059 3061 3063 3064 3066 3067 3068 3069 3070 3070 3071 3072 3074 3077 3079 3081 3083 3085 3088 3091 3094 3098 3101 3102 3103 3105 3105 3106 3107 3107 3108 3108 3109 3110 3111 3112 3114 3116 3119 3120 3122 3123 3124 3124 3126 3127 3128 3129 3130 3131 3131 3132 3132 3131 3131 3131 3131 3131 3130 3129 3129 3128 3127 3126
3022 3026 3028 3029 3031 3033 3034 3036 3036 3036 3036 3037 3038 3039 3041 3043 3045 3047 3048 3050 3053 3055 3057 3059 3061 3063 3064 3065 3066 3067 3068 3069 3070 3071 3072 3075 3077 3079 3082 3084 3087 3089 3092 3096 3099 3101 3102 3103 3103 3104 3104 3104 3105 3105 3106 3108 3109 3110 3112 3114 3116 3119 3121 3122 3122 3123 3124 3126 3127 3128 3129 3130 3130 3130 3130 3130 3130 3130 3130 3129 3129 3128 3127 3127 3126 3125
3022 3024 3026 3028 3030 3031 3033 3035 3036 3036 3037 3038 3039 3040 3041 3043 3044 3046 3048 3049 3051 3054 3056 3058 3059 3061 3063 3064 3065 3066 3067 3067 3068 3069 3070 3073 3075 3078 3081 3083 3086 3088 3091 3094 3096 3098 3099 3099 3100 3100 3101 3101 3102 3103 3104 3106 3107 3109 3111 3113 3114 3117 3119 3121 3121 3122 3123 3124 3126 3127 3128 3128 3129 3129 3129 3129 3129 3129 3129 3128 3128 3127 3127 3126 3125 3124
3022 3024 3025 3027 3029 3031 3033 3035 3037 3038 3038 3038 3039 3041 3042 3043 3045 3046 3047 3049 3050 3052 3054 3056 3058 3059 3061 3062 3064 3065 3065 3066 3066 3067 3069 3071 3073 3075 3078 3081 3084 3087 3090 3092 3093 3095 3095 3096 3097 3097 3098 3099 3100 3101 3102 3104 3106 3108 3110 3112 3114 3116 3118 3120 3121 3122 3122 3123 3124 3125 3126 3127 3127 3127 3127 3128 3128 3128 3127 3127 3127 3126 3126 3125 3124 3123
3022 3024 3026 3027 3029 3030 3032 3034 3037 3038 3037 3037 3039 3041 3043 3044 3045 3046 3047 3048 3049 3051 3053 3054 3056 3057 3059 3061 3062 3063 3064 3064 3065 3067 3068 3069 3071 3073 3075 3078 3081 3084 3087 3090 3091 3092 3093 3093 3094 3094 3095 3096 3098 3099 3101 3103 3105 3107 3109 3110 3113 3115 3117 3118 3120 3121 3121 3122 3123 3124 3125 3125 3126 3126 3126 3126 3126 3126 3126 3126 3126 3126 3125 3124 3123 3122
3021 3023 3025 3026 3027 3029 3031 3033 3035 3036 3036 3038 3039 3041 3042 3043 3045 3046 3046 3047 3048 3050 3052 3053 3054 3056 3057 3059 3060 3061 3062 3064 3065 3066 3067 3068 3070 3071 3074 3076 3079 3082 3084 3086 3088 3089 3090 3091 3091 3092 3093 3094 3096 3098 3100 3101 3103 3105 3107 3108 3111 3113 3115 3117 3118 3119 3120 3121 3122 3123 3124 3124 3125 3125 3125 3125 3125 3125 3125 3125 3125 3125 3124 3123 3123 3122
3019 3021 3023 3024 3026 3028 3030 3032 3034 3035 3036 3038 3039 3040 3041 3043 3043 3044 3044 3045 3047 3049 3050 3052 3053 3054 3055 3057 3058 3059 3061 3063 3064 3065 3066 3068 3069 3070 3073 3075 3078 3081 3083 3085 3086 3087 3088 3089 3090 3091 3091 3093 3095 3097 3098 3100 3101 3103 3105 3107 3109 3111 3114 3116 3117 3118 3119 3120 3121 3122 3122 3123 3124 3124 3124 3124 3124 3124 3124 3124 3124 3124 3123 3123 3122 3122
3017 3020 3021 3023 3025 3027 3028 3031 3032 3033 3034 3036 3038 3039 3040 3041 3041 3042 3043 3045 3046 3047 3049 3050 3051 3053 3054 3055 3056 3058 3059 3061 3062 3063 3065 3066 3068 3069 3071 3073 3075 3078 3080 3082 3084 3085 3086 3087 3088 3089 3090 3091 3093 3095 3097 3098 3100 3101 3103 3106 3108 3110 3112 3114 3116 3117 3118 3119 3120 3120 3121 3122 3123 3123 3123 3123 3123 3124 3123 3123 3123 3123 3123 3123 3122 3122
3016 3018 3020 3022 3024 3025 3027 3029 3030 3031 3032 3034 3036 3037 3038 3038 3039 3041 3043 3044 3045 3046 3047 3048 3049 3051 3052 3053 3054 3056 3057 3058 3060 3061 3062 3064 3066 3068 3069 3071 3073 3075 3078 3080 3082 3083 3084 3085 3087 3088 3089 3091 3092 3094 3096 3098 3099 3100 3101 3104 3106 3109 3111 3113 3114 3116 3117 3118 3118 3119 3120 3121 3121 3122 3122 3122 3122 3123 3122 3122 3122 3122 3123 3123 3122 3122
3016 3018 3019 3020 3022 3023 3024 3026 3027 3028 3030 3032 3033 3034 3036 3037 3038 3040 3041 3042 3043 3044 3045 3046 3047 3048 3049 3051 3052 3054 3055 3056 3058 3059 3060 3062 3064 3066 3068 3070 3072 3075 3077 3079 3080 3082 3083 3085 3086 3088 3088 3089 3091 3093 3095 3097 3099 3099 3100 3103 3106 3108 3110 3112 3113 3114 3115 3116 3117 3118 3119 3120 3120 3120 3121 3121 3121 3122 3122 3122 3122 3122 3123 3123 3122 3122
3016 3017 3018 3019 3021 3022 3023 3024 3026 3028 3029 3031 3032 3033 3035 3036 3037 3038 3040 3040 3042 3042 3043 3044 3045 3046 3047 3048 3049 3051 3052 3054 3055 3057 3059 3060 3062 3065 3067 3069 3071 3074 3076 3078 3079 3080 3083 3085 3086 3087 3087 3088 3090 3093 3094 3096 3098 3099 3101 3103 3105 3107 3109 3110 3112 3113 3114 3115 3116 3117 3118 3119 3119 3119 3120 3120 3121 3121 3121 3121 3122 3123 3123 3123 3122 3122
3016 3018 3018 3019 3021 3022 3023 3024 3026 3027 3028 3030 3031 3032 3033 3035 3036 3037 3038 3039 3040 3041 3041 3042 3043 3043 3044 3045 3047 3048 3050 3051 3053 3055 3057 3059 3061 3063 3066 3068 3070 3072 3074 3075 3077 3079 3081 3084 3085 3085 3086 3088 3090 3092 3094 3095 3096 3098 3100 3102 3104 3106 3107 3109 3110 3112 3113 3114 3115 3116 3117 3118 3118 3118 3119 3119 3120 3120 3121 3121 3122 3122 3123 3122 3122 3122
3016 3017 3018 3019 3020 3022 3022 3023 3025 3026 3027 3028 3029 3031 3032 3033 3034 3035 3036 3037 3038 3039 3039 3040 3041 3041 3042 3042 3044 3045 3047 3049 3051 3053 3055 3057 3059 3062 3065 3067 3069 3071 3072 3074 3076 3078 3080 3082 3083 3084 3086 3088 3090 3091 3093 3095 3096 3097 3099 3101 3103 3104 3106 3108 3109 3111 3113 3114 3115 3116 3116 3117 3117 3118 3118 3119 3120 3120 3121 3121 3122 3122 3122 3122 3122 3122
3015 3016 3017 3018 3019 3020 3021 3022 3023 3024 3025 3026 3028 3029 3030 3031 3032 3033 3034 3035 3036 3036 3037 3038 3038 3039 3039 3040 3040 3042 3044 3046 3048 3050 3052 3055 3058 3060 3063 3066 3067 3069 3071 3073 3075 3077 3079 3081 3082 3084 3085 3087 3089 3091 3093 3095 3096 3098 3099 3100 3102 3103 3105 3106 3108 3110 3112 3113 3114 3114 3115 3116 3116 3117 3118 3118 3119 3120 3121 3121 3122 3122 3122 3122 3122 3122
3013 3015 3015 3016 3017 3018 3019 3020 3021 3022 3023 3025 3026 3027 3028 3029 3030 3031 3032 3033 3034 3034 3035 3036 3036 3037 3037 3037 3038 3039 3041 3043 3045 3047 3050 3053 3056 3059 3062 3064 3066 3068 3070 3072 3074 3077 3078 3080 3081 3083 3085 3087 3089 3090 3092 3093 3095 3097 3098 3099 3100 3102 3104 3106 3108 3109 3111 3112 3113 3113 3114 3115 3115 3116 3117 3118 3119 3120 3120 3121 3121 3121 3121 3122 3122 3122
3012 3013 3014 3015 3016 3016 3017 3018 3019 3020 3021 3022 3024 3025 3026 3027 3028 3029 3030 3031 3031 3032 3033 3033 3034 3034 3035 3036 3036 3037 3039 3041 3043 3045 3048 3051 3054 3057 3060 3062 3065 3066 3068 3070 3073 3075 3077 3079 3080 3082 3084 3086 3088 3089 3091 3092 3094 3096 3097 3098 3099 3101 3103 3105 3107 3108 3109 3110 3111 3112 3113 3114 3115 3116 3117 3118 3118 3119 3120 3121 3121 3121 3121 3121 3122 3122
3010 3011 3012 3013 3014 3014 3015 3015 3016 3017 3018 3020 3021 3022 3023 3024 3026 3027 3028 3028 3029 3030 3031 3031 3032 3032 3033 3034 3035 3036 3038 3040 3042 3044 3047 3050 3053 3056 3059 3061 3063 3065 3066 3068 3070 3072 3074 3077 3079 3081 3083 3085 3087 3088 3090 3092 3093 3095 3096 3097 3099 3101 3103 3104 3106 3107 3108 3109 3110 3111 3112 3113 3114 3115 3116 3117 3118 3119 3120 3120 3120 3121 3121 3121 3121 3121